HA3YA-WX Weather Reports


time (UTC)temp
C
wind
direction
speed
KPH
gust
KPH
rain 1hr
cm
rain 24hr
cm
rain mn
cm
humidity
%
barometer
mb
20260905235306 19 0.0 0.0 0.00 0.00 0.00 90 1009.5
20260905234303 19 0.0 0.0 0.00 0.00 0.00 90 1009.5
20260905233303 19 0.0 0.0 0.00 0.00 0.00 88 1009.5
20260905232305 19 0.0 0.0 0.00 0.00 0.00 88 1009.5
20260905231303 19 0.0 0.0 0.00 0.00 0.00 88 1009.5
20260905230303 19 0.0 0.0 0.00 0.00 0.00 87 1009.3
20260905225305 20 0.0 0.0 0.00 0.00 0.00 88 1009.3
20260905224303 20 0.0 0.0 0.00 0.00 0.00 89 1009.3
20260905223302 20 0.0 0.0 0.00 0.00 0.00 89 1009.3
20260905222305 20 0.0 0.0 0.00 0.00 0.00 89 1009.3
20260905221302 20 0.0 0.0 0.00 0.00 0.00 91 1009.0
20260905220303 20 0.0 0.0 0.00 0.00 0.00 92 1009.0
20260905215305 19 0.0 0.0 0.00 0.00 0.00 95 1009.2
20260905214303 18 0.0 0.0 0.00 0.00 0.00 96 1009.2
20260905213303 18 0.0 0.0 0.00 0.00 0.00 96 1009.2
20260905212305 18 0.0 0.0 0.00 0.00 0.00 97 1009.2
20260905211302 18 0.0 0.0 0.00 0.00 0.00 100 1009.0
20260905210303 17 0.0 0.0 0.00 0.00 0.00 100 1009.0
20260905205306 17 0.0 0.0 0.00 0.00 0.00 100 1009.0
20260905204302 17 0.0 0.0 0.00 0.00 0.00 100 1009.0
20260905203302 17 0.0 0.0 0.00 0.00 0.00 100 1008.9
20260905202306 18 0.0 0.0 0.00 0.00 0.00 100 1008.9
20260905201302 18 0.0 0.0 0.00 0.00 0.00 100 1008.0
20260905200303 18 0.0 0.0 0.00 0.00 0.00 100 1008.0
20260905195306 18 0.0 0.0 0.00 0.00 0.00 100 1008.0
20260905194303 18 0.0 0.0 0.00 0.00 0.00 100 1008.0
20260905193303 17 0.0 0.0 0.00 0.00 0.00 100 1008.2
20260905192305 17 0.0 0.0 0.00 0.00 0.00 100 1008.0
20260905191302 17 0.0 0.0 0.00 0.00 0.00 100 1007.0
20260905190302 17 0.0 0.0 0.00 0.00 0.00 100 1007.6
20260905185305 17 0.0 0.0 0.00 0.00 0.00 100 1007.6
20260905184303 17 0.0 0.0 0.00 0.00 0.00 100 1007.6
20260905183303 17 0.0 0.0 0.00 0.00 0.00 100 1007.6
20260905182305 17 0.0 0.0 0.00 0.00 0.00 100 1007.0
20260905181303 17 0.0 0.0 0.00 0.00 0.00 100 1007.0
20260905180302 17 0.0 0.0 0.00 0.00 0.00 100 1007.0
20260905175306 17 0.0 0.0 0.00 0.00 0.00 100 1007.0
20260905174303 17 0.0 0.0 0.00 0.00 0.00 100 1006.8
20260905173303 17 0.0 0.0 0.00 0.00 0.00 100 1006.0
20260905172305 18 0.0 0.0 0.00 0.00 0.00 100 1006.0
20260905171303 18 0.0 0.0 0.00 0.00 0.00 100 1006.0
20260905170302 18 0.0 0.0 0.00 0.00 0.00 100 1006.0
20260905165306 18 0.0 0.0 0.00 0.00 0.00 100 1006.0
20260905164303 18 0.0 0.0 0.00 0.00 0.00 100 1006.4
20260905163302 18 0.0 0.0 0.00 0.00 0.00 100 1006.4
20260905162305 18 0.0 0.0 0.00 0.00 0.00 100 1006.4
20260905161302 18 0.0 0.0 0.00 0.00 0.00 100 1006.4
20260905160302 18 0.0 0.0 0.00 0.00 0.00 100 1006.4
20260905155306 18 0.0 0.0 0.00 0.00 0.00 100 1006.4
20260905154303 18 0.0 0.0 0.00 0.00 0.00 100 1006.4
20260905153302 18 0.0 0.0 0.00 0.00 0.00 100 1006.0
20260905152306 18 0.0 0.0 0.00 0.00 0.00 100 1006.0
20260905151303 18 0.0 0.0 0.00 0.00 0.00 100 1006.0
20260905150303 18 0.0 0.0 0.00 0.00 0.00 100 1006.0
20260905145306 18 0.0 0.0 0.00 0.00 0.00 100 1007.0
20260905144302 18 0.0 0.0 0.00 0.00 0.00 100 1006.0
20260905143302 18 0.0 0.0 0.00 0.00 0.00 100 1006.0
20260905142305 18 0.0 0.0 0.00 0.00 0.00 100 1006.4
20260905141302 18 0.0 0.0 0.00 0.00 0.00 100 1006.4
20260905140302 17 0.0 0.0 0.00 0.00 0.00 100 1006.4
20260905135306 17 0.0 0.0 0.00 0.00 0.00 100 1006.4
20260905134302 17 0.0 0.0 0.00 0.00 0.00 100 1006.4
20260905133303 17 0.0 0.0 0.00 0.00 0.00 100 1006.0
20260905132305 17 0.0 0.0 0.00 0.00 0.00 100 1006.0
20260905131303 17 0.0 0.0 0.00 0.00 0.00 100 1006.0
20260905130302 18 0.0 0.0 0.00 0.00 0.00 99 1006.0
20260905125305 18 0.0 0.0 0.00 0.00 0.00 97 1006.0
20260905124303 18 0.0 0.0 0.00 0.00 0.00 93 1006.5
20260905123302 20 0.0 0.0 0.00 0.00 0.00 87 1006.0
20260905122306 20 0.0 0.0 0.00 0.00 0.00 81 1006.0
20260905121302 21 0.0 0.0 0.00 0.00 0.00 78 1006.0
20260905120302 21 0.0 0.0 0.00 0.00 0.00 76 1006.6
20260905115305 21 0.0 0.0 0.00 0.00 0.00 75 1006.6
20260905114302 22 0.0 0.0 0.00 0.00 0.00 71 1006.6
20260905113302 22 0.0 0.0 0.00 0.00 0.00 70 1006.0
20260905112305 23 0.0 0.0 0.00 0.00 0.00 67 1006.0
20260905111303 25 0.0 0.0 0.00 0.00 0.00 60 1006.0
20260905110302 27 0.0 0.0 0.00 0.00 0.00 60 1006.0
20260905105305 26 0.0 0.0 0.00 0.00 0.00 62 1006.0
20260905104303 26 0.0 0.0 0.00 0.00 0.00 63 1006.0
20260905103302 26 0.0 0.0 0.00 0.00 0.00 63 1006.0
20260905102305 25 0.0 0.0 0.00 0.00 0.00 64 1006.0
20260905101303 25 0.0 0.0 0.00 0.00 0.00 65 1006.0
20260905100302 25 0.0 0.0 0.00 0.00 0.00 65 1006.0
20260905095305 25 0.0 0.0 0.00 0.00 0.00 65 1006.5
20260905094303 25 0.0 0.0 0.00 0.00 0.00 65 1006.4
20260905093302 25 0.0 0.0 0.00 0.00 0.00 65 1006.4
20260905092306 25 0.0 0.0 0.00 0.00 0.00 66 1006.4
20260905091302 24 0.0 0.0 0.00 0.00 0.00 66 1006.4
20260905090303 24 0.0 0.0 0.00 0.00 0.00 66 1006.4
20260905085305 24 0.0 0.0 0.00 0.00 0.00 66 1006.0
20260905084302 24 0.0 0.0 0.00 0.00 0.00 66 1006.0
20260905083303 24 0.0 0.0 0.00 0.00 0.00 67 1005.0
20260905082306 24 0.0 0.0 0.00 0.00 0.00 67 1005.0
20260905081302 24 0.0 0.0 0.00 0.00 0.00 68 1005.0
20260905080303 24 0.0 0.0 0.00 0.00 0.00 69 1005.0
20260905075305 25 0.0 0.0 0.00 0.00 0.00 70 1005.0
20260905074303 25 0.0 0.0 0.00 0.00 0.00 70 1004.0
20260905073303 25 0.0 0.0 0.00 0.00 0.00 71 1004.0
20260905072305 25 0.0 0.0 0.00 0.00 0.00 73 1004.0
20260905071302 24 0.0 0.0 0.00 0.00 0.00 78 1003.0
20260905070302 23 0.0 0.0 0.00 0.00 0.00 80 1003.0
20260905065306 23 0.0 0.0 0.00 0.00 0.00 85 1003.0
20260905064302 23 0.0 0.0 0.00 0.00 0.00 83 1002.0
20260905063302 23 0.0 0.0 0.00 0.00 0.00 82 1002.0
20260905062305 22 0.0 0.0 0.00 0.00 0.00 83 1002.0
20260905061302 22 0.0 0.0 0.00 0.00 0.00 85 1002.0
20260905060303 22 0.0 0.0 0.00 0.00 0.00 87 1002.0
20260905055306 22 0.0 0.0 0.00 0.00 0.00 88 1001.0
20260905054302 22 0.0 0.0 0.00 0.00 0.00 88 1001.0
20260905053302 22 0.0 0.0 0.00 0.00 0.00 88 1001.0
20260905052306 22 0.0 0.0 0.00 0.00 0.00 89 1001.7
20260905051302 21 0.0 0.0 0.00 0.00 0.00 91 1001.7
20260905050302 21 0.0 0.0 0.00 0.00 0.00 92 1001.0
20260905045305 21 0.0 0.0 0.00 0.00 0.00 91 1001.0
20260905044303 20 0.0 0.0 0.00 0.00 0.00 87 1001.0
20260905043302 20 0.0 0.0 0.00 0.00 0.00 87 1001.0
20260905042306 20 0.0 0.0 0.00 0.00 0.00 87 1001.2
20260905041303 20 0.0 0.0 0.00 0.00 0.00 87 1001.2
20260905040302 20 0.0 0.0 0.00 0.00 0.00 86 1000.8
20260905035306 20 0.0 0.0 0.00 0.00 0.00 86 1000.8
20260905034303 20 0.0 0.0 0.00 0.00 0.00 87 1000.8
20260905033302 20 0.0 0.0 0.00 0.00 0.00 86 1000.8
20260905032306 20 0.0 0.0 0.00 0.00 0.00 85 1000.8
20260905031303 20 0.0 0.0 0.00 0.00 0.00 84 1000.8
20260905030302 20 0.0 0.0 0.00 0.00 0.00 83 1000.8
20260905025306 20 0.0 0.0 0.00 0.00 0.00 83 1000.8
20260905024303 20 0.0 0.0 0.00 0.00 0.00 82 1000.8
20260905023303 21 0.0 0.0 0.00 0.00 0.00 81 1000.8
20260905022305 21 0.0 0.0 0.00 0.00 0.00 81 1000.0
20260905021302 21 0.0 0.0 0.00 0.00 0.00 80 1000.0
20260905020303 22 0.0 0.0 0.00 0.00 0.00 79 1000.0
20260905015306 21 0.0 0.0 0.00 0.00 0.00 81 1000.7
20260905014302 21 0.0 0.0 0.00 0.00 0.00 81 1000.7
20260905013302 22 0.0 0.0 0.00 0.00 0.00 80 1000.7
20260905012306 22 0.0 0.0 0.00 0.00 0.00 80 1000.6
20260905011303 22 0.0 0.0 0.00 0.00 0.00 78 1000.6
20260905010302 22 0.0 0.0 0.00 0.00 0.00 77 1000.6
20260905005306 22 0.0 0.0 0.00 0.00 0.00 76 1000.6
20260905004302 22 0.0 0.0 0.00 0.00 0.00 77 1000.6
20260905003302 22 0.0 0.0 0.00 0.00 0.00 78 1000.6
20260905002305 23 0.0 0.0 0.00 0.00 0.00 78 1000.0
20260905001302 23 0.0 0.0 0.00 0.00 0.00 77 1000.0
20260905000303 23 0.0 0.0 0.00 0.00 0.00 77 1000.0